| time (UTC) | temp F | wind direction | speed MPH | gust MPH | rain 1hr in | rain 24hr in | rain mn in | humidity % | barometer mb |
| 20260906034700 | 74 | 309 | 5.0 | 7.0 | 0.00 | 0.00 | 1.59 | 95 | 1011.7 |
| 20260906034200 | 74 | 296 | 4.0 | 6.0 | 0.00 | 0.00 | 1.59 | 95 | 1011.6 |
| 20260906033700 | 74 | 296 | 3.0 | 5.0 | 0.00 | 0.00 | 1.59 | 95 | 1011.6 |
| 20260906033200 | 74 | 311 | 3.0 | 6.0 | 0.00 | 0.00 | 1.59 | 95 | 1011.6 |
| 20260906032700 | 74 | 312 | 7.0 | 11.0 | 0.00 | 0.00 | 1.59 | 95 | 1011.6 |
| 20260906032200 | 74 | 329 | 2.0 | 2.0 | 0.00 | 0.00 | 1.59 | 95 | 1011.7 |
| 20260906031701 | 74 | 23 | 1.0 | 1.0 | 0.00 | 0.00 | 1.59 | 95 | 1011.6 |
| 20260906031200 | 74 | 353 | 2.0 | 2.0 | 0.00 | 0.00 | 1.59 | 95 | 1011.6 |
| 20260906030700 | 74 | 301 | 1.0 | 2.0 | 0.00 | 0.00 | 1.59 | 95 | 1011.4 |
| 20260906030200 | 74 | 19 | 1.0 | 1.0 | 0.00 | 0.00 | 1.59 | 95 | 1011.4 |
| 20260906025700 | 74 | 277 | 3.0 | 4.0 | 0.00 | 0.00 | 1.60 | 95 | 1011.4 |
| 20260906025200 | 74 | 239 | 3.0 | 3.0 | 0.00 | 0.00 | 1.60 | 95 | 1011.5 |
| 20260906024700 | 74 | 277 | 1.0 | 1.0 | 0.00 | 0.00 | 1.60 | 95 | 1011.4 |
| 20260906024200 | 74 | 162 | 2.0 | 3.0 | 0.00 | 0.00 | 1.60 | 95 | 1011.3 |
| 20260906023700 | 74 | 98 | 1.0 | 1.0 | 0.00 | 0.00 | 1.60 | 95 | 1011.3 |
| 20260906023200 | 75 | 152 | 3.0 | 4.0 | 0.00 | 0.00 | 1.60 | 95 | 1011.2 |
| 20260906022700 | 75 | 111 | 1.0 | 2.0 | 0.00 | 0.00 | 1.60 | 95 | 1011.2 |
| 20260906022200 | 75 | 33 | 1.0 | 1.0 | 0.00 | 0.00 | 1.60 | 95 | 1011.2 |
| 20260906021700 | 75 | 339 | 0.0 | 0.0 | 0.01 | 0.00 | 1.60 | 95 | 1011.2 |
| 20260906021200 | 75 | 190 | 1.0 | 1.0 | 0.02 | 0.00 | 1.60 | 95 | 1011.2 |
| 20260906020700 | 75 | 145 | 1.0 | 1.0 | 0.02 | 0.00 | 1.60 | 95 | 1011.3 |
| 20260906020200 | 75 | 319 | 1.0 | 2.0 | 0.03 | 0.00 | 1.60 | 95 | 1011.4 |
| 20260906015700 | 75 | 354 | 2.0 | 2.0 | 0.03 | 0.00 | 1.61 | 95 | 1011.6 |
| 20260906015200 | 75 | 334 | 1.0 | 2.0 | 0.03 | 0.00 | 1.61 | 94 | 1011.5 |
| 20260906014700 | 75 | 222 | 0.0 | 2.0 | 0.03 | 0.00 | 1.61 | 94 | 1011.5 |
| 20260906014200 | 75 | 203 | 0.0 | 1.0 | 0.03 | 0.00 | 1.61 | 94 | 1011.6 |
| 20260906013700 | 75 | 338 | 1.0 | 1.0 | 0.03 | 0.00 | 1.61 | 94 | 1011.5 |
| 20260906013200 | 75 | 180 | 2.0 | 3.0 | 0.03 | 0.00 | 1.60 | 94 | 1011.7 |
| 20260906012700 | 75 | 322 | 1.0 | 2.0 | 0.02 | 0.00 | 1.60 | 94 | 1011.9 |
| 20260906012200 | 75 | 326 | 2.0 | 2.0 | 0.01 | 0.00 | 1.60 | 94 | 1012.0 |
| 20260906011700 | 75 | 119 | 1.0 | 1.0 | 0.01 | 0.00 | 1.59 | 94 | 1012.1 |
| 20260906011200 | 75 | 310 | 2.0 | 5.0 | 0.01 | 0.00 | 1.59 | 94 | 1012.1 |
| 20260906010700 | 75 | 300 | 2.0 | 3.0 | 0.03 | 0.00 | 1.59 | 94 | 1012.3 |
| 20260906010200 | 75 | 345 | 1.0 | 2.0 | 0.03 | 0.00 | 1.58 | 94 | 1012.4 |
| 20260906005701 | 75 | 341 | 1.0 | 2.0 | 0.04 | 0.00 | 1.59 | 94 | 1012.5 |
| 20260906005200 | 75 | 65 | 2.0 | 3.0 | 0.06 | 0.00 | 1.59 | 94 | 1012.6 |
| 20260906004700 | 75 | 46 | 3.0 | 4.0 | 0.06 | 0.00 | 1.59 | 94 | 1012.6 |
| 20260906004201 | 75 | 352 | 2.0 | 2.0 | 0.06 | 0.00 | 1.59 | 94 | 1012.6 |
| 20260906003700 | 76 | 299 | 2.0 | 3.0 | 0.08 | 0.00 | 1.59 | 94 | 1012.7 |
| 20260906003200 | 76 | 357 | 1.0 | 1.0 | 0.08 | 0.00 | 1.59 | 94 | 1012.8 |
| 20260906002705 | 76 | 63 | 1.0 | 1.0 | 0.08 | 0.00 | 1.59 | 94 | 1012.8 |
| 20260906002200 | 76 | 348 | 1.0 | 1.0 | 0.08 | 0.00 | 1.60 | 94 | 1012.7 |
| 20260906001700 | 76 | 300 | 2.0 | 3.0 | 0.08 | 0.00 | 1.59 | 94 | 1012.8 |
| 20260906001200 | 76 | 210 | 2.0 | 2.0 | 0.08 | 0.00 | 1.59 | 94 | 1012.8 |
| 20260906000700 | 76 | 244 | 3.0 | 4.0 | 0.06 | 0.00 | 1.59 | 94 | 1012.6 |
| 20260906000200 | 76 | 294 | 3.0 | 5.0 | 0.06 | 0.00 | 1.58 | 94 | 1012.7 |
| 20260905235700 | 76 | 326 | 1.0 | 3.0 | 0.04 | 0.00 | 1.61 | 94 | 1012.8 |
| 20260905235200 | 76 | 312 | 2.0 | 6.0 | 0.03 | 0.00 | 1.60 | 94 | 1012.7 |
| 20260905234700 | 76 | 300 | 5.0 | 7.0 | 0.03 | 0.00 | 1.59 | 94 | 1012.5 |
| 20260905234200 | 76 | 297 | 3.0 | 6.0 | 0.02 | 0.00 | 1.58 | 94 | 1012.6 |
| 20260905233700 | 76 | 299 | 5.0 | 8.0 | 0.00 | 0.00 | 1.58 | 94 | 1012.7 |
| 20260905233200 | 76 | 306 | 4.0 | 7.0 | 0.00 | 0.00 | 1.57 | 94 | 1012.8 |
| 20260905232702 | 76 | 301 | 4.0 | 6.0 | 0.00 | 0.00 | 1.56 | 93 | 1012.8 |
| 20260905232200 | 76 | 313 | 1.0 | 4.0 | 0.04 | 0.00 | 1.56 | 93 | 1013.0 |
| 20260905231700 | 76 | 352 | 2.0 | 2.0 | 0.04 | 0.00 | 1.56 | 93 | 1013.2 |
| 20260905231200 | 76 | 344 | 2.0 | 2.0 | 0.12 | 0.00 | 1.56 | 93 | 1013.2 |
| 20260905230700 | 76 | 1 | 2.0 | 2.0 | 0.13 | 0.00 | 1.56 | 93 | 1013.1 |
| 20260905230200 | 76 | 289 | 2.0 | 3.0 | 0.16 | 0.00 | 1.56 | 93 | 1013.0 |
| 20260905225700 | 76 | 249 | 3.0 | 4.0 | 0.18 | 0.00 | 1.57 | 93 | 1012.7 |
| 20260905225200 | 76 | 222 | 5.0 | 5.0 | 0.18 | 0.00 | 1.57 | 93 | 1012.6 |
| 20260905224700 | 76 | 203 | 3.0 | 4.0 | 0.18 | 0.00 | 1.57 | 93 | 1012.8 |
| 20260905224200 | 76 | 196 | 4.0 | 9.0 | 0.18 | 0.00 | 1.57 | 93 | 1012.8 |
| 20260905223700 | 76 | 172 | 5.0 | 7.0 | 0.18 | 0.00 | 1.57 | 93 | 1012.9 |
| 20260905223200 | 76 | 176 | 4.0 | 6.0 | 0.16 | 0.00 | 1.55 | 92 | 1013.0 |
| 20260905222700 | 75 | 170 | 5.0 | 8.0 | 0.16 | 0.00 | 1.55 | 92 | 1013.0 |
| 20260905222200 | 76 | 173 | 6.0 | 7.0 | 0.15 | 0.00 | 1.54 | 91 | 1013.1 |
| 20260905221700 | 76 | 178 | 4.0 | 5.0 | 0.14 | 0.00 | 1.53 | 90 | 1013.1 |
| 20260905221200 | 77 | 81 | 4.0 | 7.0 | 0.07 | 0.00 | 1.49 | 88 | 1013.2 |
| 20260905220701 | 78 | 109 | 4.0 | 7.0 | 0.03 | 0.00 | 1.43 | 85 | 1013.3 |
| 20260905220202 | 79 | 175 | 2.0 | 4.0 | 0.01 | 0.00 | 1.40 | 84 | 1012.9 |
| 20260905215700 | 78 | 166 | 8.0 | 12.0 | 0.00 | 0.00 | 1.30 | 85 | 1012.7 |
| 20260905215200 | 78 | 99 | 9.0 | 12.0 | 0.00 | 0.00 | 1.30 | 87 | 1012.9 |
| 20260905214701 | 78 | 102 | 3.0 | 5.0 | 0.00 | 0.00 | 1.30 | 89 | 1012.3 |
| 20260905214200 | 77 | 227 | 5.0 | 7.0 | 0.00 | 0.00 | 1.30 | 89 | 1012.0 |
| 20260905213700 | 77 | 271 | 4.0 | 6.0 | 0.00 | 0.00 | 1.30 | 90 | 1011.5 |
| 20260905213200 | 77 | 278 | 5.0 | 6.0 | 0.00 | 0.00 | 1.30 | 90 | 1011.7 |
| 20260905212701 | 76 | 252 | 4.0 | 6.0 | 0.00 | 0.00 | 1.30 | 91 | 1011.6 |
| 20260905212200 | 76 | 239 | 4.0 | 7.0 | 0.00 | 0.00 | 1.30 | 91 | 1011.7 |
| 20260905211701 | 76 | 279 | 4.0 | 5.0 | 0.00 | 0.00 | 1.32 | 90 | 1011.7 |
| 20260905211200 | 76 | 257 | 4.0 | 6.0 | 0.00 | 0.00 | 1.32 | 90 | 1011.8 |
| 20260905210700 | 76 | 289 | 5.0 | 7.0 | 0.00 | 0.00 | 1.32 | 89 | 1012.0 |
| 20260905210200 | 76 | 286 | 4.0 | 6.0 | 0.08 | 0.00 | 1.32 | 89 | 1012.0 |
| 20260905205700 | 76 | 272 | 6.0 | 9.0 | 0.09 | 0.00 | 1.34 | 88 | 1012.0 |
| 20260905205200 | 77 | 264 | 6.0 | 8.0 | 0.14 | 0.00 | 1.34 | 89 | 1012.1 |
| 20260905204700 | 77 | 277 | 6.0 | 9.0 | 0.33 | 0.00 | 1.34 | 90 | 1011.8 |
| 20260905204200 | 78 | 273 | 5.0 | 7.0 | 0.33 | 0.00 | 1.34 | 89 | 1011.7 |
| 20260905203700 | 78 | 282 | 5.0 | 7.0 | 0.33 | 0.00 | 1.34 | 89 | 1011.8 |
| 20260905203200 | 79 | 288 | 6.0 | 7.0 | 0.33 | 0.00 | 1.34 | 89 | 1012.0 |
| 20260905202659 | 80 | 315 | 5.0 | 9.0 | 0.33 | 0.00 | 1.34 | 87 | 1012.0 |
| 20260905202200 | 80 | 280 | 4.0 | 5.0 | 0.38 | 0.00 | 1.39 | 83 | 1011.8 |
| 20260905201700 | 80 | 242 | 7.0 | 10.0 | 0.33 | 0.00 | 1.34 | 85 | 1011.8 |
| 20260905201200 | 80 | 248 | 7.0 | 10.0 | 0.33 | 0.00 | 1.34 | 87 | 1011.8 |
| 20260905200700 | 82 | 222 | 5.0 | 7.0 | 0.21 | 0.00 | 1.22 | 85 | 1011.9 |
| 20260905200200 | 83 | 254 | 6.0 | 9.0 | 0.18 | 0.00 | 1.19 | 85 | 1011.8 |
| 20260905195700 | 86 | 304 | 6.0 | 10.0 | 0.00 | 0.00 | 1.18 | 83 | 1011.5 |
| 20260905195200 | 90 | 281 | 6.0 | 9.0 | 0.00 | 0.00 | 1.15 | 75 | 1011.7 |
| 20260905194700 | 91 | 212 | 3.0 | 4.0 | 0.00 | 0.00 | 1.01 | 67 | 1011.8 |
| 20260905194200 | 91 | 219 | 2.0 | 4.0 | 0.00 | 0.00 | 1.01 | 66 | 1011.7 |
| 20260905193700 | 92 | 208 | 4.0 | 6.0 | 0.00 | 0.00 | 1.01 | 67 | 1011.7 |
| 20260905193200 | 92 | 178 | 6.0 | 9.0 | 0.00 | 0.00 | 1.01 | 66 | 1011.8 |
| 20260905192700 | 91 | 277 | 4.0 | 5.0 | 0.00 | 0.00 | 1.01 | 65 | 1011.8 |
| 20260905192200 | 91 | 332 | 4.0 | 5.0 | 0.00 | 0.00 | 1.01 | 64 | 1011.9 |
| 20260905191700 | 91 | 26 | 4.0 | 8.0 | 0.00 | 0.00 | 1.01 | 66 | 1012.1 |
| 20260905191200 | 90 | 336 | 0.0 | 2.0 | 0.00 | 0.00 | 1.01 | 68 | 1012.1 |
| 20260905190700 | 90 | 179 | 3.0 | 5.0 | 0.00 | 0.00 | 1.01 | 69 | 1012.2 |
| 20260905190201 | 89 | 265 | 3.0 | 4.0 | 0.00 | 0.00 | 1.01 | 71 | 1012.3 |
| 20260905185701 | 89 | 171 | 4.0 | 6.0 | 0.00 | 0.00 | 1.01 | 71 | 1012.4 |
| 20260905185200 | 89 | 243 | 2.0 | 4.0 | 0.00 | 0.00 | 1.01 | 72 | 1012.4 |
| 20260905184701 | 88 | 218 | 4.0 | 6.0 | 0.00 | 0.00 | 1.01 | 72 | 1012.4 |
| 20260905184200 | 88 | 258 | 3.0 | 4.0 | 0.00 | 0.00 | 1.01 | 73 | 1012.6 |
| 20260905183700 | 87 | 304 | 1.0 | 2.0 | 0.00 | 0.00 | 1.01 | 72 | 1012.7 |
| 20260905183201 | 87 | 243 | 4.0 | 5.0 | 0.00 | 0.00 | 1.01 | 74 | 1012.8 |
| 20260905182700 | 87 | 243 | 2.0 | 3.0 | 0.00 | 0.00 | 1.01 | 73 | 1012.8 |
| 20260905182200 | 86 | 263 | 1.0 | 3.0 | 0.00 | 0.00 | 1.01 | 73 | 1012.8 |
| 20260905181700 | 86 | 279 | 3.0 | 5.0 | 0.00 | 0.00 | 1.01 | 73 | 1012.9 |
| 20260905181200 | 85 | 256 | 4.0 | 5.0 | 0.00 | 0.00 | 1.01 | 77 | 1013.0 |
| 20260905180700 | 85 | 223 | 4.0 | 4.0 | 0.00 | 0.00 | 1.01 | 79 | 1013.1 |
| 20260905180201 | 85 | 249 | 3.0 | 5.0 | 0.00 | 0.00 | 1.01 | 78 | 1013.2 |
| 20260905175700 | 84 | 289 | 3.0 | 4.0 | 0.00 | 0.00 | 1.03 | 80 | 1013.2 |
| 20260905175200 | 83 | 360 | 1.0 | 2.0 | 0.00 | 0.00 | 1.03 | 80 | 1013.4 |
| 20260905174701 | 82 | 94 | 3.0 | 4.0 | 0.01 | 0.00 | 1.03 | 84 | 1013.5 |
| 20260905174205 | 81 | 92 | 1.0 | 2.0 | 0.02 | 0.00 | 1.03 | 85 | 1013.6 |
| 20260905173701 | 81 | 181 | 2.0 | 3.0 | 0.02 | 0.00 | 1.03 | 89 | 1013.7 |
| 20260905173200 | 80 | 221 | 4.0 | 4.0 | 0.03 | 0.00 | 1.03 | 90 | 1013.8 |
| 20260905172702 | 80 | 223 | 2.0 | 3.0 | 0.21 | 0.00 | 1.03 | 91 | 1013.9 |
| 20260905172200 | 80 | 222 | 3.0 | 3.0 | 0.21 | 0.00 | 0.91 | 92 | 1013.9 |
| 20260905171700 | 79 | 221 | 3.0 | 4.0 | 0.38 | 0.00 | 0.91 | 92 | 1014.0 |
| 20260905171202 | 79 | 219 | 3.0 | 3.0 | 0.51 | 0.00 | 0.91 | 93 | 1014.1 |
| 20260905170700 | 78 | 220 | 3.0 | 3.0 | 0.51 | 0.00 | 0.91 | 94 | 1014.1 |
| 20260905170201 | 78 | 219 | 4.0 | 4.0 | 0.78 | 0.00 | 0.91 | 94 | 1014.2 |
| 20260905165700 | 78 | 218 | 3.0 | 4.0 | 0.81 | 0.00 | 0.92 | 94 | 1014.3 |
| 20260905165202 | 78 | 237 | 3.0 | 7.0 | 0.81 | 0.00 | 0.82 | 93 | 1014.3 |
| 20260905164700 | 78 | 286 | 3.0 | 7.0 | 0.81 | 0.00 | 0.82 | 93 | 1014.4 |
| 20260905164200 | 78 | 320 | 3.0 | 5.0 | 0.78 | 0.00 | 0.82 | 93 | 1014.4 |
| 20260905163700 | 78 | 339 | 3.0 | 3.0 | 0.74 | 0.00 | 0.82 | 93 | 1014.5 |
| 20260905163200 | 78 | 327 | 2.0 | 2.0 | 0.74 | 0.00 | 0.78 | 93 | 1014.4 |
| 20260905162700 | 77 | 326 | 4.0 | 7.0 | 0.41 | 0.00 | 0.78 | 93 | 1014.4 |
| 20260905162201 | 77 | 315 | 4.0 | 5.0 | 0.36 | 0.00 | 0.74 | 93 | 1014.4 |
| 20260905161708 | 77 | 311 | 2.0 | 2.0 | 0.36 | 0.00 | 0.41 | 92 | 1014.5 |
| 20260905161200 | 77 | 113 | 3.0 | 4.0 | 0.22 | 0.00 | 0.36 | 92 | 1014.6 |
| 20260905160700 | 77 | 321 | 2.0 | 4.0 | 0.09 | 0.00 | 0.32 | 91 | 1014.6 |
| 20260905160200 | 78 | 289 | 2.0 | 5.0 | 0.03 | 0.00 | 0.22 | 90 | 1014.8 |
| 20260905155702 | 78 | 10 | 3.0 | 5.0 | 0.03 | 0.00 | 0.09 | 89 | 1014.8 |
| 20260905155200 | 78 | 36 | 3.0 | 4.0 | 0.02 | 0.00 | 0.03 | 88 | 1014.6 |
| 20260905154700 | 79 | 360 | 2.0 | 4.0 | 0.01 | 0.00 | 0.02 | 87 | 1014.4 |
| 20260905154200 | 80 | 23 | 4.0 | 5.0 | 0.00 | 0.00 | 0.02 | 86 | 1014.6 |
| 20260905153700 | 80 | 323 | 2.0 | 3.0 | 0.00 | 0.00 | 0.01 | 83 | 1014.6 |
| 20260905153200 | 80 | 302 | 5.0 | 8.0 | 0.00 | 0.00 | 0.00 | 82 | 1014.7 |
| 20260905152701 | 81 | 30 | 0.0 | 1.0 | 0.00 | 0.00 | 0.00 | 83 | 1014.6 |
| 20260905152200 | 81 | 15 | 2.0 | 4.0 | 0.00 | 0.00 | 0.00 | 82 | 1014.7 |
| 20260905151700 | 82 | 295 | 3.0 | 5.0 | 0.00 | 0.00 | 0.00 | 81 | 1014.6 |
| 20260905151200 | 82 | 315 | 0.0 | 2.0 | 0.00 | 0.00 | 0.00 | 81 | 1014.6 |
| 20260905150700 | 82 | 290 | 3.0 | 4.0 | 0.00 | 0.00 | 0.00 | 81 | 1014.5 |
| 20260905150200 | 82 | 342 | 2.0 | 3.0 | 0.00 | 0.00 | 0.00 | 81 | 1014.6 |
| 20260905145700 | 82 | 282 | 3.0 | 4.0 | 0.00 | 0.00 | 0.00 | 80 | 1014.5 |
| 20260905145200 | 82 | 40 | 0.0 | 0.0 | 0.00 | 0.00 | 0.00 | 81 | 1014.5 |
| 20260905144700 | 81 | 296 | 2.0 | 3.0 | 0.00 | 0.00 | 0.00 | 81 | 1014.5 |
| 20260905144201 | 81 | 291 | 3.0 | 4.0 | 0.00 | 0.00 | 0.00 | 82 | 1014.5 |
| 20260905143700 | 81 | 278 | 4.0 | 6.0 | 0.00 | 0.00 | 0.00 | 81 | 1014.4 |
| 20260905143204 | 81 | 286 | 4.0 | 5.0 | 0.00 | 0.00 | 0.00 | 82 | 1014.4 |
| 20260905142700 | 81 | 301 | 1.0 | 2.0 | 0.00 | 0.00 | 0.00 | 82 | 1014.5 |
| 20260905142200 | 80 | 283 | 1.0 | 2.0 | 0.00 | 0.00 | 0.00 | 83 | 1014.5 |
| 20260905141701 | 80 | 305 | 2.0 | 3.0 | 0.00 | 0.00 | 0.00 | 83 | 1014.5 |
| 20260905141201 | 80 | 282 | 4.0 | 4.0 | 0.00 | 0.00 | 0.00 | 83 | 1014.5 |
| 20260905140700 | 80 | 291 | 3.0 | 3.0 | 0.00 | 0.00 | 0.00 | 83 | 1014.5 |
| 20260905140202 | 80 | 290 | 2.0 | 4.0 | 0.00 | 0.00 | 0.00 | 84 | 1014.5 |
| 20260905135700 | 80 | 286 | 2.0 | 2.0 | 0.00 | 0.00 | 0.00 | 84 | 1014.5 |
| 20260905135201 | 80 | 285 | 3.0 | 4.0 | 0.00 | 0.00 | 0.00 | 85 | 1014.5 |
| 20260905134700 | 80 | 264 | 1.0 | 2.0 | 0.00 | 0.00 | 0.00 | 86 | 1014.4 |
| 20260905134201 | 80 | 360 | 0.0 | 0.0 | 0.00 | 0.00 | 0.00 | 87 | 1014.4 |
| 20260905133701 | 80 | 234 | 2.0 | 3.0 | 0.00 | 0.00 | 0.00 | 88 | 1014.5 |
| 20260905133200 | 79 | 236 | 2.0 | 2.0 | 0.00 | 0.00 | 0.00 | 88 | 1014.5 |
| 20260905132701 | 79 | 230 | 1.0 | 2.0 | 0.00 | 0.00 | 0.00 | 88 | 1014.4 |
| 20260905132200 | 79 | 172 | 0.0 | 2.0 | 0.00 | 0.00 | 0.00 | 89 | 1014.3 |
| 20260905131700 | 79 | 161 | 1.0 | 2.0 | 0.00 | 0.00 | 0.00 | 90 | 1014.3 |
| 20260905131200 | 78 | 134 | 0.0 | 1.0 | 0.00 | 0.00 | 0.00 | 91 | 1014.3 |
| 20260905130700 | 78 | 360 | 0.0 | 0.0 | 0.00 | 0.00 | 0.00 | 91 | 1014.2 |
| 20260905130200 | 78 | 83 | 0.0 | 1.0 | 0.00 | 0.00 | 0.00 | 91 | 1014.2 |
| 20260905125700 | 78 | 101 | 1.0 | 2.0 | 0.00 | 0.00 | 0.00 | 92 | 1014.2 |
| 20260905125201 | 77 | 96 | 1.0 | 1.0 | 0.00 | 0.00 | 0.00 | 92 | 1014.1 |
| 20260905124700 | 77 | 116 | 0.0 | 0.0 | 0.00 | 0.00 | 0.00 | 92 | 1014.0 |
| 20260905124201 | 77 | 7 | 0.0 | 1.0 | 0.00 | 0.00 | 0.00 | 92 | 1013.9 |
| 20260905123700 | 77 | 164 | 1.0 | 1.0 | 0.00 | 0.00 | 0.00 | 92 | 1013.9 |
| 20260905123200 | 77 | 151 | 1.0 | 2.0 | 0.00 | 0.00 | 0.00 | 92 | 1013.9 |
| 20260905122701 | 77 | 121 | 1.0 | 2.0 | 0.00 | 0.00 | 0.00 | 92 | 1013.9 |
| 20260905122200 | 77 | 360 | 0.0 | 0.0 | 0.00 | 0.00 | 0.00 | 92 | 1013.8 |
| 20260905121700 | 77 | 118 | 0.0 | 0.0 | 0.00 | 0.00 | 0.00 | 92 | 1013.8 |
| 20260905121200 | 77 | 114 | 2.0 | 2.0 | 0.00 | 0.00 | 0.00 | 92 | 1013.8 |
| 20260905120700 | 77 | 126 | 1.0 | 2.0 | 0.00 | 0.00 | 0.00 | 92 | 1013.7 |
| 20260905120200 | 77 | 143 | 0.0 | 1.0 | 0.00 | 0.00 | 0.00 | 92 | 1013.7 |
| 20260905115701 | 77 | 157 | 1.0 | 2.0 | 0.00 | 0.00 | 0.00 | 92 | 1013.5 |
| 20260905115200 | 77 | 360 | 0.0 | 0.0 | 0.00 | 0.00 | 0.00 | 92 | 1013.5 |
| 20260905114700 | 77 | 360 | 0.0 | 0.0 | 0.00 | 0.00 | 0.00 | 92 | 1013.5 |
| 20260905114200 | 77 | 360 | 0.0 | 0.0 | 0.00 | 0.00 | 0.00 | 92 | 1013.5 |
| 20260905113700 | 77 | 360 | 0.0 | 0.0 | 0.00 | 0.00 | 0.00 | 92 | 1013.5 |
| 20260905113200 | 77 | 206 | 0.0 | 0.0 | 0.00 | 0.00 | 0.00 | 92 | 1013.4 |
| 20260905112700 | 77 | 360 | 0.0 | 0.0 | 0.00 | 0.00 | 0.00 | 92 | 1013.4 |
| 20260905112200 | 77 | 360 | 0.0 | 0.0 | 0.00 | 0.00 | 0.00 | 92 | 1013.3 |
| 20260905111700 | 77 | 360 | 0.0 | 0.0 | 0.00 | 0.00 | 0.00 | 92 | 1013.3 |
| 20260905111201 | 77 | 360 | 0.0 | 0.0 | 0.00 | 0.00 | 0.00 | 92 | 1013.2 |
| 20260905110700 | 77 | 360 | 0.0 | 0.0 | 0.00 | 0.00 | 0.00 | 92 | 1013.3 |
| 20260905110201 | 77 | 360 | 0.0 | 0.0 | 0.00 | 0.00 | 0.00 | 92 | 1013.3 |
| 20260905105700 | 77 | 360 | 0.0 | 0.0 | 0.00 | 0.00 | 0.00 | 92 | 1013.3 |
| 20260905105200 | 77 | 360 | 0.0 | 0.0 | 0.00 | 0.00 | 0.00 | 92 | 1013.4 |
| 20260905104700 | 77 | 218 | 0.0 | 0.0 | 0.00 | 0.00 | 0.00 | 92 | 1013.4 |
| 20260905104201 | 77 | 360 | 0.0 | 0.0 | 0.00 | 0.00 | 0.00 | 92 | 1013.4 |
| 20260905103700 | 77 | 360 | 0.0 | 0.0 | 0.00 | 0.00 | 0.00 | 91 | 1013.3 |
| 20260905103202 | 77 | 360 | 0.0 | 0.0 | 0.00 | 0.00 | 0.00 | 92 | 1013.3 |
| 20260905102701 | 77 | 125 | 0.0 | 0.0 | 0.00 | 0.00 | 0.00 | 91 | 1013.3 |
| 20260905102201 | 77 | 116 | 1.0 | 1.0 | 0.00 | 0.00 | 0.00 | 91 | 1013.2 |
| 20260905101700 | 77 | 88 | 0.0 | 1.0 | 0.00 | 0.00 | 0.00 | 91 | 1013.1 |
| 20260905101200 | 77 | 360 | 0.0 | 0.0 | 0.00 | 0.00 | 0.00 | 91 | 1013.0 |
| 20260905100701 | 77 | 174 | 2.0 | 2.0 | 0.00 | 0.00 | 0.00 | 91 | 1013.0 |
| 20260905100202 | 77 | 360 | 0.0 | 0.0 | 0.00 | 0.00 | 0.00 | 91 | 1012.9 |
| 20260905095700 | 77 | 360 | 0.0 | 0.0 | 0.00 | 0.00 | 0.00 | 91 | 1012.9 |
| 20260905095201 | 77 | 360 | 0.0 | 0.0 | 0.00 | 0.00 | 0.00 | 91 | 1012.9 |
| 20260905094700 | 77 | 360 | 0.0 | 0.0 | 0.00 | 0.00 | 0.00 | 91 | 1012.9 |
| 20260905094200 | 77 | 125 | 0.0 | 1.0 | 0.00 | 0.00 | 0.00 | 91 | 1012.8 |
| 20260905093700 | 77 | 360 | 0.0 | 0.0 | 0.00 | 0.00 | 0.00 | 91 | 1012.7 |
| 20260905093200 | 77 | 360 | 0.0 | 0.0 | 0.00 | 0.00 | 0.00 | 91 | 1012.7 |
| 20260905092700 | 77 | 360 | 0.0 | 0.0 | 0.00 | 0.00 | 0.00 | 91 | 1012.8 |
| 20260905092201 | 77 | 360 | 0.0 | 0.0 | 0.00 | 0.00 | 0.00 | 91 | 1012.8 |
| 20260905091701 | 77 | 360 | 0.0 | 0.0 | 0.00 | 0.00 | 0.00 | 91 | 1012.8 |
| 20260905091200 | 77 | 360 | 0.0 | 0.0 | 0.00 | 0.00 | 0.00 | 90 | 1012.8 |
| 20260905090702 | 77 | 360 | 0.0 | 0.0 | 0.00 | 0.00 | 0.00 | 90 | 1012.7 |
| 20260905090201 | 77 | 360 | 0.0 | 0.0 | 0.00 | 0.00 | 0.00 | 90 | 1012.7 |
| 20260905085700 | 77 | 360 | 0.0 | 0.0 | 0.00 | 0.00 | 0.00 | 90 | 1012.7 |
| 20260905085200 | 77 | 360 | 0.0 | 0.0 | 0.00 | 0.00 | 0.00 | 90 | 1012.7 |
| 20260905084700 | 77 | 360 | 0.0 | 0.0 | 0.00 | 0.00 | 0.00 | 90 | 1012.7 |
| 20260905084200 | 77 | 360 | 0.0 | 0.0 | 0.00 | 0.00 | 0.00 | 90 | 1012.7 |
| 20260905083701 | 78 | 360 | 0.0 | 0.0 | 0.00 | 0.00 | 0.00 | 90 | 1012.7 |
| 20260905083200 | 78 | 360 | 0.0 | 0.0 | 0.00 | 0.00 | 0.00 | 89 | 1012.7 |
| 20260905082700 | 78 | 287 | 0.0 | 0.0 | 0.00 | 0.00 | 0.00 | 89 | 1012.8 |
| 20260905082200 | 78 | 360 | 0.0 | 0.0 | 0.00 | 0.00 | 0.00 | 89 | 1012.8 |
| 20260905081700 | 77 | 360 | 0.0 | 0.0 | 0.00 | 0.00 | 0.00 | 90 | 1012.9 |
| 20260905081200 | 77 | 70 | 0.0 | 1.0 | 0.00 | 0.00 | 0.00 | 90 | 1013.0 |
| 20260905080700 | 77 | 105 | 0.0 | 0.0 | 0.00 | 0.00 | 0.00 | 89 | 1013.0 |
| 20260905080200 | 77 | 360 | 0.0 | 0.0 | 0.00 | 0.00 | 0.00 | 89 | 1013.0 |
| 20260905075700 | 77 | 360 | 0.0 | 0.0 | 0.00 | 0.00 | 0.00 | 89 | 1013.0 |
| 20260905075200 | 77 | 360 | 0.0 | 0.0 | 0.00 | 0.00 | 0.00 | 89 | 1013.0 |
| 20260905074700 | 78 | 360 | 0.0 | 0.0 | 0.00 | 0.00 | 0.00 | 89 | 1013.0 |
| 20260905074200 | 78 | 360 | 0.0 | 0.0 | 0.00 | 0.00 | 0.00 | 89 | 1013.0 |
| 20260905073700 | 78 | 360 | 0.0 | 0.0 | 0.00 | 0.00 | 0.00 | 89 | 1013.0 |
| 20260905073200 | 78 | 360 | 0.0 | 0.0 | 0.00 | 0.00 | 0.00 | 89 | 1013.1 |
| 20260905072700 | 77 | 360 | 0.0 | 0.0 | 0.00 | 0.00 | 0.00 | 89 | 1013.1 |
| 20260905072200 | 77 | 360 | 0.0 | 0.0 | 0.00 | 0.00 | 0.00 | 89 | 1013.1 |
| 20260905071700 | 77 | 111 | 2.0 | 2.0 | 0.00 | 0.00 | 0.00 | 89 | 1013.1 |
| 20260905071200 | 77 | 121 | 1.0 | 2.0 | 0.00 | 0.00 | 0.00 | 89 | 1013.2 |
| 20260905070701 | 77 | 119 | 0.0 | 0.0 | 0.00 | 0.00 | 0.00 | 89 | 1013.1 |
| 20260905070200 | 77 | 204 | 0.0 | 1.0 | 0.00 | 0.00 | 0.00 | 89 | 1013.1 |
| 20260905065700 | 77 | 360 | 0.0 | 0.0 | 0.00 | 0.00 | 0.00 | 89 | 1013.1 |
| 20260905065200 | 78 | 298 | 0.0 | 0.0 | 0.00 | 0.00 | 0.00 | 89 | 1013.0 |
| 20260905064700 | 77 | 360 | 0.0 | 0.0 | 0.00 | 0.00 | 0.00 | 88 | 1013.0 |
| 20260905064200 | 77 | 360 | 0.0 | 0.0 | 0.00 | 0.00 | 0.00 | 88 | 1013.1 |
| 20260905063700 | 77 | 360 | 0.0 | 0.0 | 0.00 | 0.00 | 0.00 | 88 | 1013.0 |
| 20260905063200 | 78 | 360 | 0.0 | 0.0 | 0.00 | 0.00 | 0.00 | 88 | 1013.0 |
| 20260905062700 | 78 | 360 | 0.0 | 0.0 | 0.00 | 0.00 | 0.00 | 88 | 1013.1 |
| 20260905062202 | 78 | 262 | 1.0 | 1.0 | 0.00 | 0.00 | 0.00 | 88 | 1013.1 |
| 20260905061701 | 78 | 360 | 0.0 | 0.0 | 0.00 | 0.00 | 0.00 | 88 | 1013.1 |
| 20260905061200 | 78 | 360 | 0.0 | 0.0 | 0.00 | 0.00 | 0.00 | 88 | 1013.1 |
| 20260905060700 | 78 | 360 | 0.0 | 0.0 | 0.00 | 0.00 | 0.00 | 88 | 1013.1 |
| 20260905060200 | 78 | 360 | 0.0 | 0.0 | 0.00 | 0.00 | 0.00 | 87 | 1013.0 |
| 20260905055700 | 78 | 360 | 0.0 | 0.0 | 0.00 | 0.00 | 0.00 | 87 | 1013.0 |
| 20260905055200 | 78 | 360 | 0.0 | 0.0 | 0.00 | 0.00 | 0.00 | 86 | 1013.1 |
| 20260905054701 | 79 | 360 | 0.0 | 0.0 | 0.00 | 0.00 | 0.00 | 86 | 1013.1 |
| 20260905054201 | 79 | 360 | 0.0 | 0.0 | 0.00 | 0.00 | 0.00 | 85 | 1013.1 |
| 20260905053700 | 79 | 360 | 0.0 | 0.0 | 0.00 | 0.00 | 0.00 | 85 | 1013.1 |
| 20260905053201 | 79 | 360 | 0.0 | 0.0 | 0.00 | 0.00 | 0.00 | 84 | 1013.2 |
| 20260905052700 | 79 | 360 | 0.0 | 0.0 | 0.00 | 0.00 | 0.00 | 84 | 1013.2 |
| 20260905052202 | 79 | 360 | 0.0 | 0.0 | 0.00 | 0.00 | 0.00 | 85 | 1013.3 |
| 20260905051701 | 79 | 360 | 0.0 | 0.0 | 0.00 | 0.00 | 0.00 | 85 | 1013.3 |
| 20260905051201 | 79 | 104 | 1.0 | 2.0 | 0.00 | 0.00 | 0.00 | 85 | 1013.2 |
| 20260905050700 | 79 | 90 | 2.0 | 2.0 | 0.00 | 0.00 | 0.00 | 85 | 1013.2 |
| 20260905050200 | 79 | 360 | 0.0 | 0.0 | 0.00 | 0.00 | 0.00 | 85 | 1013.2 |
| 20260905045702 | 79 | 360 | 0.0 | 0.0 | 0.00 | 0.00 | 0.00 | 85 | 1013.1 |
| 20260905045200 | 79 | 360 | 0.0 | 0.0 | 0.00 | 0.00 | 0.00 | 85 | 1013.1 |
| 20260905044700 | 79 | 87 | 1.0 | 2.0 | 0.00 | 0.00 | 0.00 | 85 | 1013.1 |
| 20260905044200 | 79 | 103 | 1.0 | 2.0 | 0.00 | 0.00 | 0.00 | 85 | 1013.2 |
| 20260905043701 | 79 | 360 | 0.0 | 0.0 | 0.00 | 0.00 | 0.00 | 84 | 1013.2 |
| 20260905043200 | 79 | 360 | 0.0 | 0.0 | 0.00 | 0.00 | 0.00 | 84 | 1013.2 |
| 20260905042700 | 79 | 360 | 0.0 | 0.0 | 0.00 | 0.00 | 0.00 | 84 | 1013.3 |
| 20260905042200 | 80 | 360 | 0.0 | 0.0 | 0.00 | 0.00 | 0.00 | 83 | 1013.4 |
| 20260905041700 | 80 | 360 | 0.0 | 0.0 | 0.00 | 0.00 | 0.00 | 83 | 1013.4 |
| 20260905041200 | 80 | 360 | 0.0 | 0.0 | 0.00 | 0.00 | 0.00 | 83 | 1013.4 |
| 20260905040700 | 80 | 360 | 0.0 | 0.0 | 0.00 | 0.00 | 0.00 | 82 | 1013.4 |
| 20260905040200 | 80 | 360 | 0.0 | 0.0 | 0.00 | 0.00 | 0.00 | 82 | 1013.5 |
| 20260905035701 | 81 | 360 | 0.0 | 0.0 | 0.00 | 0.00 | 0.00 | 81 | 1013.5 |
| 20260905035201 | 81 | 360 | 0.0 | 0.0 | 0.00 | 0.00 | 0.00 | 81 | 1013.6 |